Starlink 34577

operational
NORAD ID: 64719 Int'l Des: 2025-142 Owner: SPXS Country: US Constellation: starlink
LEOCIRCULAR

关于 Starlink 34577

正在加载描述...

实时位置

正在加载3D地球...

即将过境

高度历史

Altitude vs Time

uPlot chart will show altitude changes over time

两行轨道根数

1 64719U 25142Z 25340.96955838 .00007046 00000-0 63603-3 0 9996
2 64719 70.0008 187.3576 0001681 280.0276 80.0692 14.95902970 25628
Epoch: Dec 6, 2025 • Age: 11 hours

当前状态

高度 585.4 km
速度 7.57 km/s
星下点 -16.58°S, 149.35°E
发射日期 Jun 28, 2025
运行时间 0.4 years
类型 internet

技术详情

分类 Payload
质量 575.00 kg
干质量 530.00 kg
总质量 575.00 kg
长度 0.30 m
直径 4.10 m
跨度 29.00 m
形状 Box + pan
制造商 SPXS
平台类型 Starlink V2MO
阶段状态 In Orbit
所有者/国家 SPXS/US

大型星座

Loading constellations...